Location: Coopersdale
(40.3556°N, 78.9372°W)
Time: 10:28:51
(UTC+00:00)

Vanguard 1 - Pass Details

Date: 29 January 2021
Orbit: 649 x 3834 km, 34.2° (Epoch: 07 March)

Event Time Altitude Azimuth Distance (km) Brightness Sun altitude
Rises 01:01:58 0° 284° (WNW) 7,975 15.8 -29.1°
Reaches altitude 10° 01:09:43 10° 271° (W) 6,885 15.3 -30.5°
Maximum altitude 01:23:33 21° 233° (SW) 5,420 14.2 -33.2°
Drops below altitude 10° 01:34:46 10° 192° (SSW) 5,410 13.9 -35.3°
Sets 01:39:52 0° 177° (S) 5,894 14.0 -36.3°
